Regional Weather Roundup
Issued by NWS Charleston, SC

Current Version | Previous Version | Text Only | Print | Product List | Glossary Off
Versions: 1 2 3 4 5 6 7 8 9 10 11 12 13 14 15 16 17 18 19 20 21 22 23 24 25 26 27 28 29 30 31 32 33 34 35 36 37 38 39 40 41 42 43 44 45 46 47 48 49 50

000
ASUS42 KCHS 281112
RWRCHS

REGIONAL WEATHER ROUNDUP
NATIONAL WEATHER SERVICE CHARLESTON SC
700 AM EDT FRI APR 28 2017

NOTE: "FAIR" INDICATES FEW OR NO CLOUDS BELOW 12,000 FEET WITH NO
SIGNIFICANT WEATHER AND/OR OBSTRUCTIONS TO VISIBILITY.

NOT ALL STATIONS ARE QUALITY CONTROLLED. USE DATA WITH CAUTION...
ESPECIALLY DEWPOINT OBSERVATIONS.

SCZ027-030-031-034>040-042>050-281200-
...SOUTHEAST SOUTH CAROLINA...

CITY           SKY/WX    TMP DP  RH WIND       PRES   REMARKS
N CHARLESTON   MOCLDY    73  70  90 S8        30.03R FOG
WATERFRONT PRK   N/A     74  73  96 SW6       30.00R
JOHNS ISLAND   CLOUDY    75  73  94 S8        30.03R FOG
PINOPOLIS        N/A     73  72  94 VRB2      29.93R
MONCKS CORNER  FOG       70  68  94 CALM      30.02R VSB 1/2
SUMMERVILLE    CLOUDY    72  70  94 CALM      30.03R FOG
BEAUFORT MCAS  CLOUDY    74  74 100 CALM      30.03R FOG
BEAUFORT ARPT  CLOUDY    72  72 100 S5        30.02R FOG
HILTON HEAD IS CLOUDY    73  73 100 S6        30.03R
WALTERBORO     FOG       70  70 100 CALM      30.03R VSB 1/4
ALLENDALE      FAIR      68  66  94 CALM      30.00R FOG

...SOUTHERN MIDLANDS AND PEE DEE...

CITY           SKY/WX    TMP DP  RH WIND       PRES   REMARKS
GEORGETOWN     CLOUDY    73  72  94 S7        30.04R
KINGSTREE      FAIR      70  68  94 CALM      30.02R FOG
ORANGEBURG     PTCLDY    68  66  93 SW3       30.01R
BARNWELL       FAIR      70  68  94 CALM      30.01R
AIKEN          CLOUDY    66  63  88 S6        30.04R
MANNING        FAIR      70  68  94 S14       30.01R FOG
COLUMBIA       CLOUDY    70  64  81 CALM      29.99R
SUMTER         PTCLDY    68  66  94 SW3       29.99R
FLORENCE       PTCLDY    69  69 100 S5        30.01R FOG
MYRTLE BEACH   CLOUDY    73  72  94 S9        30.04R FOG
N MYRTLE BEACH CLOUDY    73  72  96 S10       30.04R FOG

$$

GAZ063-065-086>088-099>101-113>116-118-119-134>141-150-281200-
...SOUTHEAST GEORGIA...

CITY           SKY/WX    TMP DP  RH WIND       PRES   REMARKS
SAVANNAH ARPT  PTCLDY    68  65  90 CALM      30.03R
HUNTER AAF     FOG       68  68 100 CALM      30.00R VSB 1/4
FORT STEWART   CLEAR     64  64 100 CALM      30.00R FOG
STATESBORO     CLEAR     65  65 100 CALM      30.02R
SYLVANIA       SUNNY    N/A N/A N/A CALM      30.02R FOG
CLAXTON        FAIR     N/A N/A N/A CALM      30.02R HAZE

...CSRA...CENTRAL AND FAR SOUTHEAST GEORGIA...

CITY           SKY/WX    TMP DP  RH WIND       PRES   REMARKS
THOMSON        CLOUDY    68  67  96 W3        30.04R FOG
AUGUSTA-BUSH   CLOUDY    68  66  93 SE3       29.99R FOG
AUGUSTA-DANIEL CLOUDY    71  64  78 CALM      30.01R
SWAINSBORO     FAIR      64  64 100 CALM      30.02R
VIDALIA        CLEAR     68  66  94 SE3       30.02R
EASTMAN        CLOUDY    70  70 100 CALM      30.02S FOG
HAZLEHURST     CLOUDY    70  70 100 CALM      30.01R FOG
ALMA           CLOUDY    69  67  93 SW3       30.01R
WAYCROSS       PTCLDY    68  68 100 CALM      30.01R FOG
JESUP          FAIR      63  61  94 CALM      30.01R FOG
BAXLEY         FAIR      66  66 100 CALM      30.01R FOG
BRUNSWICK      FOG       66  66 100 CALM      30.01R VSB<1/4
SAINT SIMONS   PTCLDY    74  72  93 SE3       30.01R FOG

$$

SCZ027-028-034-036>038-045-046-048>050-GAZ119-141-281200-
...LAKE AND SUPPLEMENTAL COASTAL OBSERVATIONS...

STATION/POSITION TIME  TEMP    WIND        PRES    WAVE   SWELL
                       AIR SEA DIR/SP/G            HT/PER HT/PER/DIR
                 (UTC) (F)     (DEG/KT/KT) (MB)    (FT/S) (FT/S/D)
WINYAH BAY       NOT AVBL
LAKE MURRAY      1020   70     210/  6/  7 1014.9
ACE BASIN NERRS  0945   73        CALM     1016.0
FORT PULASKI     1048   73 75  170/  2/  3 1016.7R
SAPELO ISLAND    1000   70     140/  4     1015.0

$$

ANZ835-935-AMZ111-154-330-350-352-354-370-450-454-472-281200-
...C-MAN AND BUOY OBSERVATIONS...

STATION/POSITION TIME  TEMP    WIND        PRES    WAVE   SWELL
                       AIR SEA DIR/SP/G            HT/PER HT/PER/DIR
                 (UTC) (F)     (DEG/KT/KT) (MB)    (FT/S) (FT/S/D)
BUOY 41004       1050   75 73  170/ 10/ 14 1016.8R   5/ 6   3/160/ 6
BUOY 41008       0950   73 73  170/  6/  8 1015.3    4/ 8   3/110/ 8
FOLLY BEACH CMAN 1000   74     180/ 10/ 12 1016.4R
CAPERS NEARSHORE 1008   73 73  190/ 10/ 16 1016.0R
FRIPP NEARSHORE  1008   73 72  180/ 10/ 14 1015.5R


STATION/POSITION TIME  TEMP    WIND        PRES    WAVE   SWELL
                       AIR SEA DIR/SP/G            HT/PER HT/PER/DIR
                 (UTC) (F)     (DEG/KT/KT) (MB)    (FT/S) (FT/S/D)
5E ST. MARYS GA  1030      74                N/A     3/ 8
FRYING PAN BUOY  1050   74 73  180/ 12/ 14 1017.5R   5/ 6   3/120/ 8
BUOY 41025       1050   77 77  210/ 17/ 21 1018.0R   5/ 8   3/140/ 8
CAPE LOOKOUT NC  1000   73     200/  9/ 12 1017.1R
BUOY 41002       1050   75 75  180/ 14/ 16 1020.4R   4/ 6   3/ 90/ 8
BUOY 41010       1050   77 78  150/ 14/ 16 1018.0R   4/ 8   3/110/ 8
ST AUGUSTINE FL  1100   72 75  180/  3/  4 1017.1R


$$



USA.gov is the U.S. government's official web portal to all federal, state and local government web resources and services.